Fort Collins, CO

11:02 AM MDT on August 19, 2019 (GMT -0600)
Fort Collins-Loveland Municipal

Weather History for KFNL - July, 2019

Change the Weather History Date:

Sunday, July 21, 2019

  Actual Average Record
Temperature  
Mean Temperature 71 °F -  
Max Temperature 82 °F - 104 °F (2005)
Min Temperature 59 °F - 37 °F (2016)
Degree Days  
Heating Degree Days 0    
Month to date heating degree days 0  
Cooling Degree Days 6    
Month to date cooling degree days 155  
Growing Degree Days 20 (Base 50)    
Moisture  
Dew Point 59 °F    
Average Humidity 71    
Maximum Humidity 90    
Minimum Humidity 52    
Precipitation  
Precipitation 0.00 in - 6.33 in (2002)
Snow  
Snow 0.00 in - - ()
Snow Depth 0.00 in    
Sea Level Pressure  
Sea Level Pressure 30.08 in    
Wind  
Wind Speed 6 mph (ESE)    
Max Wind Speed 13 mph    
Max Gust Speed 22 mph    
Visibility 10 miles    
Events Rain    
T = Trace of Precipitation, MM = Missing Value Source: NWS Daily Summary

Daily Weather History Graph

Daily Weather History Graph

Search for Another Location

Airport or City:

Astronomy

Jul. 21, 2019 Rise Set
Actual Time 5:47 AM MDT 8:25 PM MDT
Civil Twilight 5:15 AM MDT 8:56 PM MDT
Nautical Twilight 4:36 AM MDT 9:36 PM MDT
Astronomical Twilight 3:51 AM MDT 10:20 PM MDT
Moon 11:20 PM MDT (7/21) 10:10 AM MDT (7/21)
Length of Visible Light 15h 41m
Length of Day
14h 37m
Waning Gibbous, 80% of the Moon is Illuminated
Jul 21
Waning Gibbous
Jul 24
Last Quarter
Jul 31
New
Aug 7
First Quarter
Aug 15
Full

Hourly Weather History & Observations

Time (MDT) Temp. Dew Point Humidity Pressure Visibility Wind Dir Wind Speed Gust Speed Precip Events Conditions
12:56 AM 63.0 °F 57.0 °F 81% 29.94 in 10.0 mi SE 11.5 mph - N/A   Clear
1:56 AM 61.0 °F 57.0 °F 87% 29.96 in 10.0 mi Calm Calm - N/A   Clear
2:56 AM 62.1 °F 57.9 °F 86% 29.98 in 10.0 mi SW 4.6 mph - N/A   Clear
3:56 AM 61.0 °F 57.0 °F 87% 29.98 in 10.0 mi WSW 6.9 mph - N/A   Clear
4:56 AM 60.1 °F 57.0 °F 90% 29.98 in 10.0 mi South 4.6 mph - N/A   Partly Cloudy
5:41 AM 60.8 °F 57.2 °F 88% 30.14 in 10.0 mi South 3.5 mph - N/A   Mostly Cloudy
5:56 AM 61.0 °F 57.0 °F 87% 29.96 in 10.0 mi SW 3.5 mph - N/A   Mostly Cloudy
6:30 AM 62.6 °F 57.2 °F 82% 30.14 in 10.0 mi South 3.5 mph - N/A   Partly Cloudy
6:56 AM 62.1 °F 57.0 °F 84% 29.99 in 10.0 mi Calm Calm - N/A   Clear
7:14 AM 62.6 °F 57.2 °F 82% 30.16 in 10.0 mi NNE 3.5 mph - N/A   Mostly Cloudy
7:36 AM 64.4 °F 57.2 °F 77% 30.16 in 10.0 mi North 4.6 mph - N/A   Scattered Clouds
7:56 AM 66.9 °F 57.9 °F 73% 30.02 in 10.0 mi NE 5.8 mph - N/A   Partly Cloudy
8:56 AM 69.1 °F 59.0 °F 70% 30.03 in 10.0 mi East 5.8 mph - N/A   Clear
9:56 AM 72.0 °F 60.1 °F 66% 30.04 in 10.0 mi Variable 3.5 mph - N/A   Mostly Cloudy
10:15 AM 73.4 °F 60.8 °F 65% 30.21 in 10.0 mi East 3.5 mph - N/A   Scattered Clouds
10:56 AM 75.9 °F 61.0 °F 60% 30.04 in 10.0 mi East 5.8 mph - N/A   Partly Cloudy
11:56 AM 79.0 °F 61.0 °F 54% 30.04 in 10.0 mi NE 6.9 mph - N/A   Scattered Clouds
12:56 PM 79.0 °F 60.1 °F 52% 30.06 in 10.0 mi NNE 8.1 mph - N/A   Clear
1:56 PM 79.0 °F 59.0 °F 50% 30.06 in 10.0 mi Calm Calm - N/A   Clear
2:56 PM 79.0 °F 60.1 °F 52% 30.05 in 10.0 mi West 9.2 mph - N/A   Partly Cloudy
3:56 PM 77.0 °F 63.0 °F 62% 30.05 in 10.0 mi Variable 3.5 mph - 0.00 in Rain Light Rain
4:56 PM 73.9 °F 62.1 °F 66% 30.09 in 10.0 mi SW 6.9 mph - 0.00 in Rain Light Rain
5:43 PM 75.2 °F 62.6 °F 65% 30.24 in 10.0 mi NE 13.8 mph - 0.00 in   Mostly Cloudy
5:56 PM 77.0 °F 62.1 °F 60% 30.05 in 10.0 mi East 17.3 mph 21.9 mph 0.00 in   Scattered Clouds
6:10 PM 75.2 °F 62.6 °F 65% 30.22 in 10.0 mi SSE 11.5 mph 19.6 mph N/A   Partly Cloudy
6:56 PM 75.0 °F 61.0 °F 62% 30.09 in 10.0 mi ESE 12.7 mph - N/A   Scattered Clouds
7:56 PM 73.9 °F 60.1 °F 62% 30.12 in 10.0 mi East 12.7 mph - N/A   Overcast
8:56 PM 72.0 °F 59.0 °F 64% 30.14 in 10.0 mi East 8.1 mph - N/A   Overcast
9:56 PM 71.1 °F 59.0 °F 66% 30.17 in 10.0 mi East 4.6 mph - N/A   Mostly Cloudy
10:56 PM 70.0 °F 59.0 °F 68% 30.18 in 10.0 mi NNE 6.9 mph - N/A   Overcast
11:56 PM 70.0 °F 59.0 °F 68% 30.19 in 10.0 mi ENE 5.8 mph - N/A   Overcast